Vorticity
0 8 7 6 7 7 7 7 5 6 5 5 8 5 4 5 4 3 2 3 3 3 3 3 3 4 5 5 5 7 4 7 8 8 7 7 9 5 3 1 2 5 4
2 7 6 6 6 7 6 7 5 6 5 5 7 7 5 5 4 2 3 4 4 5 5 5 6 5 5 6 7 7 6 10 9 8 8 9 6 5 2 3 6 3 3
9 6 5 6 6 8 6 8 5 5 4 5 6 7 6 5 5 4 4 5 5 7 5 7 7 6 6 6 7 6 8 9 11 10 9 8 3 4 5 3 4 5 5
8 6 5 5 7 7 7 7 4 3 5 6 5 5 4 4 5 4 5 6 7 5 7 7 8 10 8 5 11 7 8 10 9 11 10 5 5 6 4 4 6 6 5
7 6 5 6 7 7 6 6 4 4 4 5 6 4 3 3 4 6 7 6 10 11 17 22 16 14 12 29 16 3 10 11 11 8 7 6 5 4 4 5 5 4 5
6 7 6 7 7 7 6 5 5 5 5 5 5 7 7 6 6 5 6 8 7 15 19 19 15 13 11 1 2 16 11 11 7 5 8 6 4 4 5 3 2 2 6
5 6 6 7 7 6 6 5 6 6 6 5 4 8 7 6 4 5 4 8 6 15 14 12 11 8 8 5 14 7 11 8 6 6 3 6 6 6 3 1 3 5 5
6 6 6 6 8 5 5 7 7 8 7 6 7 7 6 4 6 5 5 5 7 5 9 9 12 6 10 7 6 4 5 5 4 2 4 6 5 5 5 6 6 7 6
6 6 7 4 8 7 6 9 10 7 8 8 8 7 4 5 5 6 5 5 6 6 6 4 10 5 8 4 4 3 4 3 4 4 5 7 4 8 8 9 9 7 7
6 7 8 6 9 8 8 7 9 8 7 8 7 4 5 6 5 4 5 5 5 6 5 7 7 6 8 8 5 4 6 6 3 3 3 1 6 7 5 4 4 4 5
6 6 9 6 11 10 8 8 8 7 7 8 4 5 6 4 5 5 5 4 5 6 6 6 5 7 8 9 12 9 5 5 3 1 4 5 7 13 17 8 7 2 8
5 7 8 10 13 8 7 7 8 8 7 4 5 6 4 3 5 5 6 4 4 4 5 7 8 8 6 7 10 17 18 14 11 12 11 8 10 18 16 11 9 10 9
6 7 7 13 7 8 10 9 11 5 4 6 7 5 5 7 5 8 6 5 7 5 4 5 5 8 9 7 7 10 12 12 11 8 8 10 7 10 9 8 8 7 6
7 8 7 9 8 10 9 8 4 4 6 4 4 6 5 5 12 9 7 9 7 6 5 4 4 6 8 8 8 8 7 7 7 6 6 7 6 6 6 6 6 6 6
7 8 9 6 7 9 7 3 3 3 5 4 5 6 6 8 9 6 5 4 6 9 6 7 5 5 8 7 7 8 7 6 5 4 6 5 6 7 9 9 8 7 6
8 8 11 5 7 8 2 -1 7 3 5 5 6 10 11 6 6 9 7 7 9 6 8 6 7 5 6 7 7 7 7 8 5 5 8 6 7 8 8 7 7 6 6
9 7 11 6 5 2 7 7 4 4 8 4 6 10 11 9 12 12 11 11 10 5 9 7 8 7 5 7 8 8 7 5 5 7 7 6 9 6 5 5 7 8 8
8 8 10 6 4 2 2 8 5 5 4 5 8 9 8 6 8 14 10 14 15 7 13 7 8 10 8 7 5 6 6 6 6 8 7 6 6 4 4 5 9 7 10
9 8 10 5 3 3 2 8 9 6 4 5 7 7 9 8 8 8 11 14 12 8 9 9 7 8 9 9 7 5 4 5 6 8 7 7 8 7 6 6 4 8 8
8 6 11 5 1 -0 9 6 7 6 4 5 6 6 5 9 6 6 12 13 7 8 10 8 7 7 8 9 9 8 7 6 8 7 5 5 7 6 6 7 5 9 8
5 7 12 6 2 1 5 5 6 6 4 4 5 8 9 7 9 6 11 9 8 9 8 9 8 9 9 11 10 11 10 9 8 7 6 3 8 11 8 6 6 7 3
8 7 11 8 6 4 5 5 5 4 5 4 5 5 10 7 5 8 6 8 7 8 9 7 8 8 8 8 7 8 10 9 6 6 3 5 14 10 9 7 7 5 7
7 7 9 11 7 5 3 5 6 4 4 5 5 5 5 5 5 5 8 7 6 6 5 6 6 4 3 4 5 5 6 4 4 2 5 14 10 9 8 5 5 6 8
8 8 7 9 4 3 7 5 6 4 4 6 4 5 4 5 5 6 4 5 4 7 8 7 7 7 7 6 8 13 11 9 10 14 14 9 9 7 5 5 8 5 8
2 7 8 6 8 4 7 6 5 3 3 6 4 3 5 6 6 4 5 5 6 5 5 7 9 10 10 10 8 6 9 15 11 12 8 7 4 3 5 5 3 2 4
3 5 7 6 8 4 4 6 6 3 4 6 6 4 3 4 5 6 9 8 8 10 10 8 6 7 10 13 14 8 8 8 7 6 8 6 5 5 4 6 5 1 3
Height
5902 5902 5902 5902 5903 5903 5904 5905 5906 5906 5906 5906 5906 5907 5908 5909 5911 5912 5911 5910 5911 5911 5911 5910 5910 5910 5910 5911 5911 5912 5913 5913 5912 5913 5913 5913 5913 5914 5914 5914 5914 5914 5914
5904 5903 5903 5903 5904 5905 5906 5906 5908 5908 5907 5908 5908 5909 5910 5911 5912 5912 5912 5911 5912 5911 5910 5910 5910 5910 5911 5911 5912 5912 5913 5913 5913 5913 5914 5914 5915 5915 5915 5916 5917 5917 5916
5905 5904 5903 5904 5905 5906 5907 5908 5909 5909 5909 5909 5911 5912 5913 5914 5914 5913 5913 5913 5913 5912 5912 5911 5910 5911 5911 5911 5912 5913 5913 5913 5913 5913 5914 5914 5916 5917 5918 5918 5919 5918 5917
5906 5905 5905 5906 5907 5908 5908 5908 5910 5910 5911 5913 5914 5914 5915 5915 5914 5915 5915 5915 5914 5913 5911 5909 5909 5910 5911 5911 5912 5912 5913 5913 5913 5913 5915 5916 5918 5920 5921 5921 5920 5919 5918
5907 5906 5907 5908 5909 5908 5908 5910 5911 5912 5913 5915 5915 5916 5916 5916 5917 5917 5918 5917 5914 5912 5909 5908 5908 5909 5911 5910 5910 5912 5914 5914 5915 5916 5918 5920 5921 5922 5922 5922 5921 5920 5920
5906 5907 5907 5908 5909 5909 5910 5911 5912 5914 5915 5916 5917 5918 5918 5919 5919 5920 5919 5918 5916 5912 5909 5908 5908 5910 5912 5911 5912 5914 5915 5917 5919 5920 5921 5923 5923 5923 5923 5923 5923 5922 5922
5906 5907 5908 5909 5910 5910 5911 5912 5914 5916 5917 5918 5919 5920 5920 5920 5921 5922 5921 5919 5917 5915 5912 5911 5912 5913 5914 5915 5915 5917 5919 5921 5922 5923 5925 5925 5925 5925 5925 5925 5925 5925 5924
5907 5908 5909 5910 5912 5912 5913 5915 5916 5917 5918 5920 5922 5922 5922 5923 5924 5923 5922 5921 5919 5918 5917 5916 5916 5916 5917 5918 5919 5922 5923 5924 5925 5926 5927 5927 5927 5926 5927 5927 5926 5926 5925
5908 5909 5910 5911 5913 5914 5915 5917 5918 5919 5921 5923 5924 5925 5925 5925 5925 5925 5924 5924 5922 5922 5921 5921 5921 5920 5921 5921 5922 5923 5924 5926 5926 5927 5928 5928 5927 5927 5927 5926 5927 5926 5925
5909 5910 5912 5913 5915 5916 5917 5919 5920 5921 5923 5924 5925 5926 5927 5927 5927 5927 5927 5926 5925 5924 5924 5925 5925 5924 5924 5924 5924 5926 5927 5927 5928 5929 5929 5928 5928 5927 5927 5926 5926 5926 5926
5910 5911 5913 5915 5915 5917 5919 5920 5922 5924 5925 5926 5927 5929 5928 5929 5929 5929 5929 5928 5927 5927 5927 5927 5927 5927 5927 5926 5927 5928 5927 5929 5930 5930 5930 5930 5929 5927 5927 5927 5928 5928 5928
5909 5912 5914 5916 5917 5918 5920 5922 5924 5926 5927 5928 5929 5930 5930 5930 5930 5930 5930 5930 5930 5930 5930 5930 5930 5930 5929 5929 5930 5930 5930 5930 5931 5932 5931 5932 5930 5930 5930 5930 5930 5931 5930
5910 5912 5914 5916 5918 5919 5922 5924 5926 5928 5929 5929 5931 5931 5931 5932 5931 5931 5932 5932 5933 5932 5932 5932 5932 5932 5932 5932 5933 5933 5933 5932 5933 5933 5933 5934 5933 5933 5932 5933 5933 5932 5932
5911 5912 5914 5917 5918 5921 5924 5926 5928 5929 5931 5931 5932 5934 5934 5934 5933 5933 5934 5934 5934 5934 5934 5935 5935 5935 5935 5935 5936 5935 5936 5936 5936 5936 5936 5936 5936 5936 5937 5936 5935 5934 5934
5911 5912 5915 5917 5920 5923 5926 5927 5930 5931 5932 5933 5934 5935 5935 5935 5934 5934 5935 5936 5935 5935 5936 5936 5937 5938 5938 5938 5937 5938 5938 5939 5939 5939 5939 5939 5939 5939 5939 5939 5937 5937 5936
5911 5912 5915 5918 5921 5925 5928 5930 5931 5932 5933 5935 5936 5936 5936 5936 5936 5935 5935 5936 5937 5937 5938 5938 5939 5940 5940 5940 5940 5940 5941 5941 5941 5942 5941 5941 5942 5941 5942 5941 5941 5940 5938
5910 5913 5915 5918 5922 5925 5929 5931 5933 5934 5935 5935 5937 5937 5937 5937 5938 5937 5936 5937 5938 5939 5940 5940 5940 5941 5942 5943 5943 5943 5943 5943 5943 5944 5944 5944 5944 5944 5945 5944 5944 5943 5941
5911 5914 5915 5919 5922 5925 5929 5932 5934 5935 5936 5937 5938 5939 5939 5939 5938 5938 5938 5939 5940 5941 5942 5943 5943 5943 5944 5945 5945 5945 5945 5945 5945 5946 5946 5946 5946 5946 5946 5946 5945 5944 5943
5911 5913 5915 5919 5922 5926 5929 5932 5936 5937 5938 5938 5939 5940 5941 5941 5940 5939 5939 5939 5941 5944 5945 5945 5945 5944 5945 5946 5947 5947 5947 5947 5947 5947 5948 5947 5947 5948 5948 5948 5947 5946 5945
5911 5913 5916 5919 5923 5926 5929 5933 5936 5938 5940 5940 5941 5941 5942 5942 5943 5941 5941 5941 5943 5945 5946 5947 5947 5947 5947 5947 5947 5948 5948 5948 5949 5949 5950 5949 5949 5950 5950 5951 5949 5949 5947
5911 5914 5916 5920 5924 5927 5929 5933 5936 5938 5941 5943 5943 5943 5944 5944 5945 5943 5943 5945 5945 5947 5948 5948 5949 5949 5948 5949 5949 5950 5950 5950 5950 5951 5951 5951 5951 5952 5952 5952 5952 5951 5950
5911 5913 5916 5920 5924 5927 5928 5931 5935 5938 5941 5943 5945 5945 5946 5946 5946 5947 5946 5947 5948 5949 5950 5951 5951 5951 5951 5952 5952 5952 5953 5953 5952 5953 5953 5953 5953 5954 5954 5954 5953 5953 5953
5910 5912 5915 5919 5922 5926 5929 5931 5935 5938 5941 5943 5945 5947 5948 5949 5948 5950 5949 5950 5950 5952 5952 5953 5954 5953 5953 5954 5955 5955 5955 5954 5954 5954 5955 5955 5956 5956 5956 5957 5957 5956 5955
5908 5910 5912 5917 5921 5924 5928 5932 5934 5936 5938 5942 5944 5947 5949 5951 5950 5951 5951 5952 5952 5953 5954 5955 5955 5955 5955 5956 5957 5957 5956 5956 5955 5956 5957 5958 5959 5959 5959 5959 5959 5959 5958
5904 5907 5910 5915 5919 5923 5928 5931 5933 5936 5939 5943 5945 5948 5950 5952 5952 5952 5954 5954 5954 5954 5955 5957 5957 5957 5957 5958 5959 5958 5958 5958 5958 5959 5959 5960 5961 5962 5962 5962 5962 5961 5961
5901 5904 5907 5912 5917 5921 5926 5930 5933 5935 5938 5941 5944 5946 5949 5952 5954 5954 5955 5955 5956 5956 5957 5957 5958 5958 5959 5960 5960 5959 5959 5960 5961 5961 5962 5962 5964 5964 5965 5964 5964 5963 5963